Powrót do katalogu

HIMAWARI 3 AKM

AktywnyMEO
NORAD 22266·ROCKET BODY·🇯🇵 Japan

Wystrzelony Aug 2, 1984 z Tanegashima Space Center

Loading…

Następne Przeloty (najbliższe 24 godziny)

TLE

ŚwieżeSource: Space-Track

Epoka: Sep 14, 2026, 19:03 UTC

1 22266U 84080E   26257.79425435  .00000021  00000-0  00000-0 0  9992
2 22266   9.3574 315.6078 0136086 115.5630 236.4012  0.99751001118373

Śledź HIMAWARI 3 AKM w czasie rzeczywistym z AllMySat

Download on the App Store